Saint Bonnet de Bellac- Haute Vienne - France
Donnes mto: mercredi, 30/05/2012
Date Horaire Temp. E. Hum. E. P.atmo. Pluie Vent Direction Direction Ensoleilleme Solaire P. de rose Temp au vent Rafales
30/05/2012 00:00 17,2 C 75 % 1016,3 hPa 0,0 mm 0,0 km/h (0 Bft) N-NE 22 0 min 0 W/m 12,7 C 17,2 C 0,0 km/h (0 Bft)
30/05/2012 00:10 16,9 C 76 % 1016,2 hPa 0,0 mm 0,0 km/h (0 Bft) N-NE 22 0 min 0 W/m 12,6 C 16,9 C 0,0 km/h (0 Bft)
30/05/2012 00:20 16,7 C 77 % 1016,1 hPa 0,0 mm 0,0 km/h (0 Bft) N-NE 22 0 min 0 W/m 12,6 C 16,7 C 0,0 km/h (0 Bft)
30/05/2012 00:30 16,6 C 77 % 1016,2 hPa 0,0 mm 0,0 km/h (0 Bft) N-NE 22 0 min 0 W/m 12,5 C 16,6 C 0,0 km/h (0 Bft)
30/05/2012 00:40 16,4 C 79 % 1016,3 hPa 0,0 mm 0,0 km/h (0 Bft) N-NE 22 0 min 0 W/m 12,7 C 16,4 C 0,0 km/h (0 Bft)
30/05/2012 00:50 16,3 C 79 % 1016,3 hPa 0,0 mm 0,0 km/h (0 Bft) N-NE 22 0 min 0 W/m 12,6 C 16,3 C 0,0 km/h (0 Bft)
30/05/2012 01:00 16,1 C 80 % 1016,4 hPa 0,0 mm 0,0 km/h (0 Bft) N-NE 22 0 min 0 W/m 12,6 C 16,1 C 0,0 km/h (0 Bft)
30/05/2012 01:10 16,1 C 81 % 1016,3 hPa 0,0 mm 0,0 km/h (0 Bft) N-NE 22 0 min 0 W/m 12,8 C 16,1 C 0,0 km/h (0 Bft)
30/05/2012 01:20 15,8 C 80 % 1016,4 hPa 0,0 mm 0,0 km/h (0 Bft) N-NE 22 0 min 0 W/m 12,4 C 15,8 C 0,0 km/h (0 Bft)
30/05/2012 01:30 15,7 C 81 % 1016,4 hPa 0,0 mm 0,0 km/h (0 Bft) N-NE 22 0 min 0 W/m 12,4 C 15,7 C 0,0 km/h (0 Bft)
30/05/2012 01:40 15,6 C 81 % 1016,4 hPa 0,0 mm 0,0 km/h (0 Bft) N-NE 22 0 min 0 W/m 12,3 C 15,6 C 0,0 km/h (0 Bft)
30/05/2012 01:50 15,4 C 82 % 1016,5 hPa 0,0 mm 0,0 km/h (0 Bft) N-NE 22 0 min 0 W/m 12,3 C 15,4 C 0,0 km/h (0 Bft)
30/05/2012 02:00 15,3 C 83 % 1016,4 hPa 0,0 mm 0,0 km/h (0 Bft) N-NE 22 0 min 0 W/m 12,4 C 15,3 C 0,0 km/h (0 Bft)
30/05/2012 02:10 15,2 C 83 % 1016,5 hPa 0,0 mm 0,0 km/h (0 Bft) N-NE 22 0 min 0 W/m 12,3 C 15,2 C 0,0 km/h (0 Bft)
30/05/2012 02:20 15,1 C 83 % 1016,5 hPa 0,0 mm 0,0 km/h (0 Bft) N-NE 22 0 min 0 W/m 12,2 C 15,1 C 0,0 km/h (0 Bft)
30/05/2012 02:30 14,9 C 84 % 1016,5 hPa 0,0 mm 0,0 km/h (0 Bft) N-NE 22 0 min 0 W/m 12,2 C 14,9 C 0,0 km/h (0 Bft)
30/05/2012 02:40 14,8 C 84 % 1016,5 hPa 0,0 mm 0,0 km/h (0 Bft) N-NE 22 0 min 0 W/m 12,1 C 14,8 C 0,0 km/h (0 Bft)
30/05/2012 02:50 14,6 C 85 % 1016,5 hPa 0,0 mm 0,0 km/h (0 Bft) N-NE 22 0 min 0 W/m 12,1 C 14,6 C 0,0 km/h (0 Bft)
30/05/2012 03:02 14,4 C 85 % 1016,5 hPa 0,0 mm 0,0 km/h (0 Bft) N-NE 22 0 min 0 W/m 11,9 C 14,4 C 0,0 km/h (0 Bft)
30/05/2012 03:10 14,3 C 85 % 1016,6 hPa 0,0 mm 0,0 km/h (0 Bft) NE 45 0 min 0 W/m 11,8 C 14,3 C 0,0 km/h (0 Bft)
30/05/2012 03:20 14,3 C 85 % 1016,5 hPa 0,0 mm 0,0 km/h (0 Bft) E-NE 67 0 min 0 W/m 11,8 C 14,3 C 0,0 km/h (0 Bft)
30/05/2012 03:30 14,3 C 86 % 1016,6 hPa 0,0 mm 0,0 km/h (0 Bft) E-NE 67 0 min 0 W/m 12,0 C 14,3 C 0,0 km/h (0 Bft)
30/05/2012 03:40 14,2 C 86 % 1016,7 hPa 0,0 mm 0,7 km/h (0 Bft) E-NE 67 0 min 0 W/m 11,9 C 14,2 C 3,2 km/h (1 Bft)
30/05/2012 03:50 14,1 C 87 % 1016,6 hPa 0,0 mm 0,0 km/h (0 Bft) E-NE 67 0 min 0 W/m 12,0 C 14,1 C 0,0 km/h (0 Bft)
30/05/2012 04:00 14,1 C 87 % 1016,5 hPa 0,0 mm 2,9 km/h (1 Bft) E-SE 112 0 min 0 W/m 12,0 C 14,1 C 6,1 km/h (2 Bft)
30/05/2012 04:10 14,1 C 87 % 1016,5 hPa 0,0 mm 0,0 km/h (0 Bft) E-SE 112 0 min 0 W/m 12,0 C 14,1 C 0,0 km/h (0 Bft)
30/05/2012 04:20 14,0 C 87 % 1016,5 hPa 0,0 mm 0,0 km/h (0 Bft) E-SE 112 0 min 0 W/m 11,9 C 14,0 C 0,0 km/h (0 Bft)
30/05/2012 04:30 14,0 C 88 % 1016,5 hPa 0,0 mm 0,4 km/h (0 Bft) E 90 0 min 0 W/m 12,0 C 14,0 C 3,2 km/h (1 Bft)
30/05/2012 04:40 14,0 C 88 % 1016,5 hPa 0,0 mm 0,4 km/h (0 Bft) E-SE 112 0 min 0 W/m 12,0 C 14,0 C 3,2 km/h (1 Bft)
30/05/2012 04:50 13,9 C 88 % 1016,6 hPa 0,0 mm 1,1 km/h (1 Bft) E 90 0 min 0 W/m 11,9 C 13,9 C 4,3 km/h (1 Bft)
30/05/2012 05:00 13,8 C 88 % 1016,6 hPa 0,0 mm 1,4 km/h (1 Bft) E-SE 112 0 min 0 W/m 11,8 C 13,8 C 4,0 km/h (1 Bft)
30/05/2012 05:10 13,6 C 88 % 1016,7 hPa 0,0 mm 0,0 km/h (0 Bft) SE 135 0 min 0 W/m 11,6 C 13,6 C 0,0 km/h (0 Bft)
30/05/2012 05:20 13,4 C 88 % 1016,6 hPa 0,0 mm 0,0 km/h (0 Bft) SE 135 0 min 0 W/m 11,5 C 13,4 C 0,0 km/h (0 Bft)
30/05/2012 05:30 13,4 C 89 % 1016,6 hPa 0,0 mm 0,0 km/h (0 Bft) SE 135 0 min 0 W/m 11,6 C 13,4 C 0,0 km/h (0 Bft)
30/05/2012 05:40 13,3 C 89 % 1016,6 hPa 0,0 mm 0,0 km/h (0 Bft) SE 135 0 min 0 W/m 11,5 C 13,3 C 0,0 km/h (0 Bft)
30/05/2012 05:50 13,2 C 89 % 1016,7 hPa 0,0 mm 0,0 km/h (0 Bft) SE 135 0 min 0 W/m 11,4 C 13,2 C 0,0 km/h (0 Bft)
30/05/2012 06:00 13,1 C 89 % 1016,8 hPa 0,0 mm 0,4 km/h (0 Bft) SE 135 0 min 0 W/m 11,3 C 13,1 C 3,2 km/h (1 Bft)
30/05/2012 06:10 13,1 C 89 % 1017,0 hPa 0,0 mm 0,0 km/h (0 Bft) SE 135 0 min 0 W/m 11,3 C 13,1 C 0,0 km/h (0 Bft)
30/05/2012 06:20 13,2 C 89 % 1017,0 hPa 0,0 mm 2,2 km/h (1 Bft) E-SE 112 0 min 0 W/m 11,4 C 13,2 C 3,6 km/h (1 Bft)
30/05/2012 06:30 13,1 C 90 % 1017,0 hPa 0,0 mm 2,5 km/h (1 Bft) E-SE 112 0 min 0 W/m 11,5 C 13,1 C 5,4 km/h (2 Bft)
30/05/2012 06:40 13,2 C 90 % 1017,2 hPa 0,0 mm 0,7 km/h (0 Bft) E-SE 112 0 min 0 W/m 11,6 C 13,2 C 3,6 km/h (1 Bft)
30/05/2012 06:50 13,2 C 90 % 1017,3 hPa 0,0 mm 1,1 km/h (1 Bft) E-SE 112 0 min 0 W/m 11,6 C 13,2 C 4,3 km/h (1 Bft)
30/05/2012 07:00 13,2 C 90 % 1017,3 hPa 0,0 mm 1,4 km/h (1 Bft) E-SE 112 0 min 0 W/m 11,6 C 13,2 C 1,4 km/h (1 Bft)
30/05/2012 07:10 13,4 C 90 % 1017,4 hPa 0,0 mm 0,7 km/h (0 Bft) E 90 0 min 0 W/m 11,8 C 13,4 C 3,2 km/h (1 Bft)
30/05/2012 07:20 13,4 C 90 % 1017,4 hPa 0,0 mm 1,1 km/h (1 Bft) E-SE 112 0 min 0 W/m 11,8 C 13,4 C 3,2 km/h (1 Bft)
30/05/2012 07:30 13,7 C 90 % 1017,5 hPa 0,0 mm 2,2 km/h (1 Bft) E-SE 112 0 min 0 W/m 12,1 C 13,7 C 4,3 km/h (1 Bft)
30/05/2012 07:40 13,9 C 90 % 1017,6 hPa 0,0 mm 1,1 km/h (1 Bft) E-SE 112 0 min 0 W/m 12,3 C 13,9 C 1,1 km/h (1 Bft)
30/05/2012 07:50 14,2 C 90 % 1017,6 hPa 0,0 mm 0,7 km/h (0 Bft) E 90 0 min 0 W/m 12,6 C 14,2 C 4,0 km/h (1 Bft)
30/05/2012 08:00 14,6 C 89 % 1017,7 hPa 0,0 mm 1,8 km/h (1 Bft) E-SE 112 0 min 0 W/m 12,8 C 14,6 C 1,8 km/h (1 Bft)
30/05/2012 08:10 15,0 C 90 % 1017,9 hPa 0,0 mm 0,0 km/h (0 Bft) E-SE 112 0 min 0 W/m 13,4 C 15,0 C 0,0 km/h (0 Bft)
30/05/2012 08:20 15,5 C 88 % 1018,0 hPa 0,0 mm 0,0 km/h (0 Bft) E-SE 112 0 min 0 W/m 13,5 C 15,5 C 0,0 km/h (0 Bft)
30/05/2012 08:30 16,1 C 88 % 1018,0 hPa 0,0 mm 0,0 km/h (0 Bft) E-SE 112 0 min 0 W/m 14,1 C 16,1 C 0,0 km/h (0 Bft)
30/05/2012 08:40 16,8 C 87 % 1018,1 hPa 0,0 mm 0,0 km/h (0 Bft) E-SE 112 0 min 0 W/m 14,6 C 16,8 C 0,0 km/h (0 Bft)
30/05/2012 08:50 17,4 C 86 % 1018,1 hPa 0,0 mm 0,0 km/h (0 Bft) E-SE 112 0 min 0 W/m 15,0 C 17,4 C 0,0 km/h (0 Bft)
30/05/2012 09:00 18,2 C 84 % 1018,2 hPa 0,0 mm 0,0 km/h (0 Bft) E-SE 112 0 min 0 W/m 15,4 C 18,2 C 0,0 km/h (0 Bft)
30/05/2012 09:10 18,9 C 82 % 1018,2 hPa 0,0 mm 0,4 km/h (0 Bft) E-SE 112 0 min 0 W/m 15,8 C 18,9 C 0,4 km/h (0 Bft)
30/05/2012 09:20 19,8 C 80 % 1018,3 hPa 0,0 mm 0,0 km/h (0 Bft) E-SE 112 0 min 0 W/m 16,2 C 19,8 C 0,0 km/h (0 Bft)
30/05/2012 09:30 20,6 C 79 % 1018,4 hPa 0,0 mm 0,0 km/h (0 Bft) E-SE 112 0 min 0 W/m 16,8 C 20,6 C 0,0 km/h (0 Bft)
30/05/2012 09:40 21,4 C 78 % 1018,6 hPa 0,0 mm 0,0 km/h (0 Bft) E-SE 112 0 min 0 W/m 17,4 C 21,4 C 0,0 km/h (0 Bft)
30/05/2012 09:50 22,1 C 75 % 1018,6 hPa 0,0 mm 0,0 km/h (0 Bft) E-SE 112 0 min 0 W/m 17,5 C 22,1 C 0,0 km/h (0 Bft)
30/05/2012 10:00 22,8 C 74 % 1018,5 hPa 0,0 mm 0,0 km/h (0 Bft) E 90 0 min 0 W/m 17,9 C 22,8 C 3,2 km/h (1 Bft)
30/05/2012 10:10 23,4 C 71 % 1018,5 hPa 0,0 mm 0,4 km/h (0 Bft) E 90 0 min 0 W/m 17,8 C 23,4 C 3,2 km/h (1 Bft)
30/05/2012 10:20 24,0 C 67 % 1018,6 hPa 0,0 mm 0,7 km/h (0 Bft) E 90 0 min 0 W/m 17,5 C 24,0 C 3,2 km/h (1 Bft)
30/05/2012 10:30 24,5 C 63 % 1018,6 hPa 0,0 mm 0,0 km/h (0 Bft) E 90 0 min 0 W/m 17,0 C 24,5 C 0,0 km/h (0 Bft)
30/05/2012 10:40 25,1 C 61 % 1018,7 hPa 0,0 mm 0,0 km/h (0 Bft) E 90 0 min 0 W/m 17,0 C 25,1 C 0,0 km/h (0 Bft)
30/05/2012 10:50 25,6 C 58 % 1018,6 hPa 0,0 mm 0,0 km/h (0 Bft) E 90 0 min 0 W/m 16,7 C 25,6 C 0,0 km/h (0 Bft)
30/05/2012 11:00 26,4 C 53 % 1018,7 hPa 0,0 mm 2,2 km/h (1 Bft) NE 45 0 min 0 W/m 16,0 C 26,4 C 2,2 km/h (1 Bft)
30/05/2012 11:10 26,9 C 51 % 1018,9 hPa 0,0 mm 1,1 km/h (1 Bft) NE 45 0 min 0 W/m 15,9 C 26,9 C 1,1 km/h (1 Bft)
30/05/2012 11:20 27,3 C 50 % 1018,9 hPa 0,0 mm 2,9 km/h (1 Bft) NE 45 0 min 0 W/m 15,9 C 27,3 C 4,3 km/h (1 Bft)
30/05/2012 11:30 27,6 C 50 % 1019,0 hPa 0,0 mm 0,0 km/h (0 Bft) NE 45 0 min 0 W/m 16,2 C 27,6 C 0,0 km/h (0 Bft)
30/05/2012 11:40 28,0 C 49 % 1019,0 hPa 0,0 mm 0,0 km/h (0 Bft) N-NE 22 0 min 0 W/m 16,3 C 28,0 C 0,0 km/h (0 Bft)
30/05/2012 11:50 28,3 C 48 % 1019,0 hPa 0,0 mm 1,1 km/h (1 Bft) N 360 0 min 0 W/m 16,2 C 28,3 C 4,0 km/h (1 Bft)
30/05/2012 12:00 28,3 C 47 % 1019,1 hPa 0,0 mm 2,9 km/h (1 Bft) NE 45 0 min 0 W/m 15,9 C 28,3 C 4,7 km/h (1 Bft)
30/05/2012 12:10 28,4 C 45 % 1019,0 hPa 0,0 mm 0,7 km/h (0 Bft) O-SO 247 0 min 0 W/m 15,3 C 28,4 C 3,2 km/h (1 Bft)
30/05/2012 12:20 28,0 C 47 % 1019,1 hPa 0,0 mm 0,4 km/h (0 Bft) E-SE 112 0 min 0 W/m 15,6 C 28,0 C 3,2 km/h (1 Bft)
30/05/2012 12:30 28,3 C 48 % 1019,1 hPa 0,0 mm 0,0 km/h (0 Bft) S-SO 202 0 min 0 W/m 16,2 C 28,3 C 0,0 km/h (0 Bft)
30/05/2012 12:40 28,2 C 47 % 1019,1 hPa 0,0 mm 3,2 km/h (1 Bft) S-SO 202 0 min 0 W/m 15,8 C 28,2 C 7,2 km/h (2 Bft)
30/05/2012 12:50 28,3 C 48 % 1019,2 hPa 0,0 mm 2,9 km/h (1 Bft) NO 315 0 min 0 W/m 16,2 C 28,3 C 4,0 km/h (1 Bft)
30/05/2012 13:00 28,9 C 47 % 1019,2 hPa 0,0 mm 3,2 km/h (1 Bft) N-NO 337 0 min 0 W/m 16,4 C 28,9 C 4,0 km/h (1 Bft)
30/05/2012 13:10 29,4 C 45 % 1019,2 hPa 0,0 mm 2,5 km/h (1 Bft) S-SO 202 0 min 0 W/m 16,2 C 29,4 C 6,1 km/h (2 Bft)
30/05/2012 13:20 28,9 C 46 % 1019,2 hPa 0,0 mm 0,7 km/h (0 Bft) O-SO 247 0 min 0 W/m 16,1 C 28,9 C 4,0 km/h (1 Bft)
30/05/2012 13:30 28,8 C 44 % 1019,2 hPa 0,0 mm 0,0 km/h (0 Bft) O-SO 247 0 min 0 W/m 15,3 C 28,8 C 0,0 km/h (0 Bft)
30/05/2012 13:40 29,2 C 46 % 1019,1 hPa 0,0 mm 0,0 km/h (0 Bft) NO 315 0 min 0 W/m 16,4 C 29,2 C 0,0 km/h (0 Bft)
30/05/2012 13:50 28,6 C 45 % 1019,1 hPa 0,0 mm 0,0 km/h (0 Bft) S-SO 202 0 min 0 W/m 15,5 C 28,6 C 0,0 km/h (0 Bft)
30/05/2012 14:00 28,3 C 47 % 1019,0 hPa 0,0 mm 0,7 km/h (0 Bft) O-SO 247 0 min 0 W/m 15,9 C 28,3 C 3,6 km/h (1 Bft)
30/05/2012 14:10 28,4 C 47 % 1019,0 hPa 0,0 mm 1,1 km/h (1 Bft) O-NO 292 0 min 0 W/m 16,0 C 28,4 C 4,0 km/h (1 Bft)
30/05/2012 14:20 28,7 C 46 % 1019,0 hPa 0,0 mm 4,3 km/h (1 Bft) NO 315 0 min 0 W/m 15,9 C 28,7 C 8,3 km/h (2 Bft)
30/05/2012 14:30 28,8 C 46 % 1018,9 hPa 0,0 mm 6,1 km/h (2 Bft) S-SO 202 0 min 0 W/m 16,0 C 28,8 C 9,0 km/h (2 Bft)
30/05/2012 14:40 28,3 C 45 % 1018,9 hPa 0,0 mm 5,0 km/h (1 Bft) O-SO 247 0 min 0 W/m 15,2 C 28,3 C 5,0 km/h (1 Bft)
30/05/2012 14:50 28,3 C 47 % 1018,9 hPa 0,0 mm 3,6 km/h (1 Bft) S-SO 202 0 min 0 W/m 15,9 C 28,3 C 6,8 km/h (2 Bft)
30/05/2012 15:00 28,1 C 48 % 1018,9 hPa 0,0 mm 3,6 km/h (1 Bft) O 270 0 min 0 W/m 16,0 C 28,1 C 7,6 km/h (2 Bft)
30/05/2012 15:10 28,3 C 48 % 1019,0 hPa 0,0 mm 1,1 km/h (1 Bft) NO 315 0 min 0 W/m 16,2 C 28,3 C 1,1 km/h (1 Bft)
30/05/2012 15:20 28,2 C 48 % 1018,9 hPa 0,0 mm 2,9 km/h (1 Bft) NO 315 0 min 0 W/m 16,1 C 28,2 C 6,8 km/h (2 Bft)
_ Min-Heure 06:30 13:30 00:20 - 13:50 - - - - 06:10 06:30 13:50
Minimum _ 13,1 C 44 % 1016,1 hPa - 0,0 km/h (0 Bft) - - - - 11,3 C 13,1 C 0,0 km/h (0 Bft)
_ Max-Heure 13:10 08:10 13:30 15:20 14:30 - - 15:20 15:20 10:00 13:10 14:30
Maximum _ 29,4 C 90 % 1019,2 hPa 0,0 mm 6,1 km/h
S-SO (2 Bft)
- - 0 min 0 W/m 17,9 C 29,4 C 9,0 km/h
S-SO (2 Bft)
Moyenne _ 19,6 C 73 % 1017,7 hPa #0,0 mm 0,8 km/h (0 Bft) E-SE - #0 min. 0 W/m 13,9 C 19,6 C 1,9 km/h (1 Bft)
Saint Bonnet de Bellac- Haute Vienne - France